Location: Hac?musa Deresi
(39.1694°N, 32.2508°E)
Time: 09:54:48
(UTC+00:00)

CSL-04 Debris - Pass Details

Date: 22 April 2026
Orbit: 820 x 838 km, 98.7° (Epoch: 12 May)

Event Time Altitude Azimuth Distance (km) Brightness Sun altitude
Exits shadow 17:13:21 - 149° (SSE) 3,043 6.6 -7.8°
Reaches altitude 10° 17:14:59 10° 145° (SE) 2,413 6.1 -8.1°
Maximum altitude 17:20:07 50° 71° (ENE) 1,049 4.4 -9.0°
Drops below altitude 10° 17:25:18 10° 358° (N) 2,438 7.0 -9.9°
Sets 17:27:43 0° 353° (N) 3,379 7.8 -10.3°
